HADES-R

Last updated on Mon Nov 03 2025 00:03:22 GMT+0000 (Coordinated Universal Time)

1 62690U 25009CK 25306.21291986 .00092552 00000+0 18672-2 0 9991 2 62690 97.3963 27.6786 0002948 270.6008 89.4904 15.46188727 44498
UTC large
Height (km)
Speed (km/s)
/
Latitude / Longitude
Inclination (degrees)
Orbital Period (minutes)
Azimuth
Elevation
Range (km)
Doppler Factor

Next 0 passes for location: London (51.5072 / 0.1276)

Sorry there are no passes over London.